This is the latest recevied weather packets stored in our database for station/object DH0DM-13. If no packets are shown the sender has not sent any weather packets the latest 10 day(s).
| Time | Temp. | Humidity | Pressure | Rain* | Wind** | Luminosity | Snow |
|---|---|---|---|---|---|---|---|
| 1787437920 | 13.89° C | 79% | 993 hPa | 0 mm | 2.68 m/s, 220° | - | - |
| 1787437320 | 14.44° C | 78% | 993 hPa | 0 mm | 3.58 m/s, 255° | - | - |
| 1787436719 | 14.44° C | 78% | 992.9 hPa | 0 mm | 2.68 m/s, 198° | - | - |
| 1787436118 | 14.44° C | 78% | 993 hPa | 0 mm | 4.92 m/s, 250° | - | - |
| 1787435517 | 14.44° C | 78% | 992.8 hPa | 11.18 mm | 9.83 m/s, 245° | - | - |
| 1787434916 | 14.44° C | 77% | 992.8 hPa | 11.18 mm | 2.24 m/s, 252° | - | - |
| 1787434315 | 14.44° C | 76% | 992.6 hPa | 11.18 mm | 4.02 m/s, 210° | - | - |
| 1787433714 | 14.44° C | 77% | 992.6 hPa | 11.18 mm | 2.68 m/s, 226° | - | - |
| 1787433113 | 14.44° C | 77% | 992.4 hPa | 11.18 mm | 6.71 m/s, 216° | - | - |
| 1787432513 | 14.44° C | 77% | 992.4 hPa | 11.18 mm | 3.58 m/s, 241° | - | - |
| 1787431912 | 14.44° C | 78% | 992.3 hPa | 11.18 mm | 7.6 m/s, 241° | - | - |
| 1787431311 | 14.44° C | 77% | 992.3 hPa | 11.18 mm | 3.58 m/s, 233° | - | - |
| 1787430710 | 14.44° C | 77% | 992.4 hPa | 11.18 mm | 2.24 m/s, 228° | - | - |
| 1787430108 | 14.44° C | 76% | 992.3 hPa | 11.18 mm | 6.71 m/s, 229° | - | - |
| 1787429507 | 14.44° C | 76% | 992.3 hPa | 11.18 mm | 4.92 m/s, 235° | - | - |
| 1787428905 | 15° C | 76% | 992.2 hPa | 11.18 mm | 2.68 m/s, 242° | - | - |
| 1787428304 | 15° C | 75% | 992 hPa | 11.18 mm | 11.18 m/s, 202° | - | - |
| 1787427703 | 15° C | 75% | 991.9 hPa | 11.18 mm | 4.92 m/s, 247° | - | - |
| 1787427102 | 15° C | 75% | 991.9 hPa | 11.18 mm | 7.15 m/s, 237° | - | - |
| 1787426501 | 15° C | 75% | 991.7 hPa | 11.18 mm | 5.36 m/s, 220° | - | - |
| 1787425900 | 15° C | 76% | 991.6 hPa | 11.18 mm | 3.58 m/s, 217° | - | - |
| 1787425299 | 15° C | 76% | 991.5 hPa | 11.18 mm | 7.15 m/s, 232° | - | - |
| 1787424699 | 15° C | 76% | 991.4 hPa | 11.18 mm | 4.92 m/s, 250° | - | - |
| 1787424098 | 15° C | 77% | 991.3 hPa | 11.18 mm | 4.92 m/s, 242° | - | - |
| 1787423497 | 15° C | 77% | 991 hPa | 11.18 mm | 3.13 m/s, 245° | - | - |
* Rain since midnight (hover to see other rain measurements)
** Current wind speed in m/s (hover to see current wind gust speed)